| time (UTC) | temp F | wind direction | speed knots | gust knots | rain 1hr in | rain 24hr in | rain mn in | humidity % | barometer mb |
| 20260510120053 | 67 | 181 | 0.0 | 0.0 | 0.00 | 0.00 | 0.00 | 98 | 1014.8 |
| 20260510114550 | 67 | 175 | 0.0 | 0.0 | 0.00 | 0.00 | 0.00 | 98 | 1014.8 |
| 20260510113056 | 66 | 175 | 0.0 | 0.0 | 0.00 | 0.00 | 0.00 | 98 | 1014.5 |
| 20260510111545 | 67 | 178 | 0.0 | 0.0 | 0.00 | 0.00 | 0.00 | 98 | 1014.2 |
| 20260510110043 | 66 | 178 | 0.0 | 0.0 | 0.00 | 0.00 | 0.00 | 98 | 1013.9 |
| 20260510104541 | 66 | 178 | 0.0 | 0.0 | 0.00 | 0.00 | 0.00 | 98 | 1013.5 |
| 20260510103042 | 66 | 178 | 0.0 | 0.0 | 0.00 | 0.00 | 0.00 | 98 | 1013.4 |
| 20260510101538 | 66 | 178 | 0.0 | 0.0 | 0.00 | 0.00 | 0.00 | 98 | 1013.4 |
| 20260510100037 | 66 | 178 | 0.0 | 0.0 | 0.00 | 0.00 | 0.00 | 97 | 1013.2 |
| 20260510094538 | 67 | 178 | 0.0 | 0.0 | 0.00 | 0.00 | 0.00 | 97 | 1013.2 |
| 20260510093036 | 66 | 178 | 0.0 | 0.0 | 0.00 | 0.00 | 0.00 | 97 | 1013.2 |
| 20260510091535 | 66 | 178 | 0.0 | 0.0 | 0.00 | 0.00 | 0.00 | 97 | 1013.3 |
| 20260510090038 | 66 | 178 | 0.0 | 0.0 | 0.00 | 0.00 | 0.00 | 97 | 1013.1 |
| 20260510084535 | 66 | 178 | 0.0 | 0.0 | 0.00 | 0.00 | 0.00 | 97 | 1013.0 |
| 20260510083030 | 67 | 178 | 0.0 | 0.0 | 0.00 | 0.00 | 0.00 | 97 | 1012.9 |
| 20260510081529 | 67 | 178 | 0.0 | 0.0 | 0.00 | 0.00 | 0.00 | 97 | 1012.7 |
| 20260510080034 | 67 | 178 | 0.0 | 0.0 | 0.00 | 0.00 | 0.00 | 97 | 1012.6 |
| 20260510074527 | 67 | 178 | 0.0 | 0.0 | 0.00 | 0.00 | 0.00 | 96 | 1012.5 |
| 20260510073029 | 67 | 178 | 0.0 | 0.0 | 0.00 | 0.00 | 0.00 | 97 | 1012.6 |
| 20260510071523 | 67 | 178 | 0.0 | 0.0 | 0.00 | 0.00 | 0.00 | 97 | 1012.4 |
| 20260510070023 | 68 | 178 | 0.0 | 0.0 | 0.00 | 0.00 | 0.00 | 97 | 1012.4 |
| 20260510064538 | 68 | 178 | 0.0 | 0.0 | 0.00 | 0.00 | 0.00 | 97 | 1012.2 |
| 20260510063025 | 68 | 178 | 0.0 | 0.0 | 0.00 | 0.00 | 0.00 | 97 | 1012.2 |
| 20260510061518 | 68 | 178 | 0.0 | 0.0 | 0.00 | 0.00 | 0.00 | 97 | 1011.7 |
| 20260510060017 | 68 | 178 | 0.9 | 0.0 | 0.00 | 0.00 | 0.00 | 97 | 1011.7 |
| 20260510054515 | 68 | 178 | 2.6 | 0.0 | 0.00 | 0.00 | 0.00 | 98 | 1011.7 |
| 20260510053034 | 69 | 180 | 1.7 | 0.0 | 0.00 | 0.00 | 0.00 | 98 | 1011.8 |
| 20260510051512 | 69 | 180 | 1.7 | 0.0 | 0.00 | 0.00 | 0.00 | 98 | 1012.0 |
| 20260510050009 | 69 | 179 | 3.5 | 0.0 | 0.00 | 0.00 | 0.00 | 98 | 1012.0 |
| 20260510044510 | 69 | 156 | 0.9 | 0.0 | 0.00 | 0.00 | 1.00 | 98 | 1012.7 |
| 20260510043009 | 69 | 156 | 0.9 | 0.0 | 0.00 | 0.00 | 1.00 | 98 | 1012.9 |
| 20260510041508 | 69 | 156 | 0.0 | 0.0 | 0.00 | 0.00 | 1.00 | 98 | 1013.3 |
| 20260510040008 | 69 | 155 | 0.0 | 0.0 | 0.00 | 0.00 | 1.00 | 98 | 1013.2 |
| 20260510034508 | 69 | 156 | 0.0 | 0.0 | 0.00 | 0.00 | 1.00 | 98 | 1013.6 |
| 20260510033007 | 69 | 155 | 0.0 | 0.0 | 0.00 | 0.00 | 1.00 | 98 | 1014.0 |
| 20260510031507 | 69 | 155 | 0.0 | 0.0 | 0.00 | 0.00 | 1.00 | 98 | 1014.2 |
| 20260510030006 | 69 | 155 | 0.0 | 0.0 | 0.00 | 0.00 | 1.00 | 98 | 1014.0 |
| 20260510024506 | 69 | 155 | 0.0 | 0.0 | 0.00 | 0.00 | 1.00 | 98 | 1013.6 |
| 20260510023005 | 69 | 156 | 0.0 | 0.0 | 0.00 | 0.00 | 1.00 | 98 | 1013.5 |
| 20260510021505 | 69 | 156 | 0.0 | 0.0 | 0.00 | 0.00 | 1.00 | 98 | 1013.2 |
| 20260510020004 | 69 | 155 | 0.0 | 0.0 | 0.00 | 0.00 | 1.00 | 98 | 1013.1 |
| 20260510014504 | 69 | 155 | 0.0 | 0.0 | 0.00 | 0.00 | 1.00 | 98 | 1013.0 |
| 20260510013004 | 69 | 156 | 0.9 | 0.0 | 0.00 | 0.00 | 1.00 | 98 | 1012.6 |
| 20260510011503 | 69 | 156 | 2.6 | 0.0 | 0.00 | 0.00 | 1.00 | 98 | 1012.3 |
| 20260510010002 | 69 | 153 | 1.7 | 0.0 | 0.00 | 0.00 | 1.00 | 98 | 1012.3 |
| 20260510004504 | 69 | 153 | 0.0 | 0.0 | 0.00 | 0.00 | 1.00 | 97 | 1012.2 |
| 20260510003002 | 69 | 152 | 1.7 | 0.0 | 0.00 | 0.00 | 0.98 | 97 | 1012.4 |
| 20260510001503 | 69 | 123 | 0.9 | 0.0 | 0.00 | 0.00 | 0.92 | 97 | 1012.6 |
| 20260510000000 | 69 | 123 | 0.0 | 0.0 | 0.00 | 0.00 | 0.85 | 97 | 1012.7 |
| 20260509234501 | 69 | 221 | 0.9 | 0.0 | 0.00 | 0.00 | 0.84 | 97 | 1012.4 |
| 20260509233100 | 69 | 228 | 0.0 | 0.0 | 0.00 | 0.00 | 0.84 | 97 | 1012.5 |
| 20260509231623 | 69 | 202 | 0.0 | 0.0 | 0.00 | 0.00 | 0.84 | 97 | 1012.5 |
| 20260509230108 | 69 | 202 | 0.9 | 0.0 | 0.00 | 0.00 | 0.84 | 97 | 1012.3 |
| 20260509230001 | 69 | 203 | 0.9 | 0.0 | 0.00 | 0.00 | 0.84 | 97 | 1012.3 |
| 20260509224559 | 69 | 211 | 0.0 | 0.0 | 0.00 | 0.00 | 0.81 | 97 | 1012.4 |
| 20260509223110 | 69 | 213 | 0.0 | 0.0 | 0.00 | 0.00 | 0.79 | 97 | 1012.1 |
| 20260509221619 | 69 | 216 | 0.0 | 0.0 | 0.00 | 0.00 | 0.76 | 97 | 1012.1 |
| 20260509220100 | 69 | 118 | 0.0 | 0.0 | 0.00 | 0.00 | 0.75 | 97 | 1011.8 |
| 20260509214603 | 69 | 118 | 0.0 | 0.0 | 0.00 | 0.00 | 0.75 | 97 | 1012.3 |
| 20260509213057 | 69 | 118 | 0.0 | 0.0 | 0.00 | 0.00 | 0.74 | 97 | 1011.8 |
| 20260509211606 | 69 | 118 | 0.9 | 0.0 | 0.00 | 0.00 | 0.74 | 97 | 1012.0 |
| 20260509210058 | 69 | 143 | 1.7 | 0.0 | 0.00 | 0.00 | 0.72 | 97 | 1011.8 |
| 20260509204558 | 69 | 105 | 0.9 | 0.0 | 0.00 | 0.00 | 0.71 | 97 | 1011.8 |
| 20260509203055 | 69 | 94 | 0.0 | 0.0 | 0.00 | 0.00 | 0.71 | 97 | 1011.5 |
| 20260509201554 | 68 | 109 | 1.7 | 0.0 | 0.00 | 0.00 | 0.71 | 97 | 1011.9 |
| 20260509200109 | 68 | 108 | 1.7 | 0.0 | 0.00 | 0.00 | 0.71 | 97 | 1012.1 |
| 20260509194556 | 68 | 103 | 1.7 | 0.0 | 0.00 | 0.00 | 0.71 | 97 | 1012.5 |
| 20260509193053 | 68 | 74 | 0.0 | 0.0 | 0.00 | 0.00 | 0.61 | 97 | 1013.0 |
| 20260509191553 | 68 | 118 | 0.9 | 0.0 | 0.00 | 0.00 | 0.56 | 97 | 1012.8 |
| 20260509190054 | 68 | 118 | 0.0 | 0.0 | 0.00 | 0.00 | 0.54 | 97 | 1013.2 |
| 20260509184553 | 68 | 105 | 0.0 | 0.0 | 0.00 | 0.00 | 0.53 | 97 | 1013.2 |
| 20260509183103 | 68 | 106 | 0.0 | 0.0 | 0.00 | 0.00 | 0.40 | 97 | 1014.2 |
| 20260509181551 | 68 | 95 | 2.6 | 0.0 | 0.00 | 0.00 | 0.37 | 97 | 1013.0 |
| 20260509180051 | 68 | 103 | 4.3 | 0.0 | 0.00 | 0.00 | 0.37 | 97 | 1013.3 |
| 20260509174552 | 67 | 107 | 1.7 | 0.0 | 0.00 | 0.00 | 0.36 | 97 | 1013.4 |
| 20260509173057 | 67 | 96 | 2.6 | 0.0 | 0.00 | 0.00 | 0.34 | 97 | 1013.6 |
| 20260509171550 | 67 | 109 | 1.7 | 0.0 | 0.00 | 0.00 | 0.32 | 97 | 1013.7 |
| 20260509170049 | 67 | 105 | 0.9 | 0.0 | 0.00 | 0.00 | 0.28 | 97 | 1014.1 |
| 20260509164547 | 67 | 102 | 0.9 | 0.0 | 0.00 | 0.00 | 0.28 | 97 | 1013.9 |
| 20260509163050 | 68 | 136 | 0.9 | 0.0 | 0.00 | 0.00 | 0.28 | 96 | 1014.2 |
| 20260509161546 | 68 | 103 | 1.7 | 0.0 | 0.00 | 0.00 | 0.21 | 96 | 1013.6 |
| 20260509160044 | 68 | 74 | 1.7 | 0.0 | 0.00 | 0.00 | 0.09 | 96 | 1013.5 |
| 20260509154543 | 68 | 103 | 1.7 | 0.0 | 0.00 | 0.00 | 0.08 | 96 | 1013.4 |
| 20260509153051 | 68 | 94 | 0.9 | 0.0 | 0.00 | 0.00 | 0.07 | 96 | 1013.8 |
| 20260509151544 | 68 | 81 | 0.0 | 0.0 | 0.00 | 0.00 | 0.05 | 95 | 1013.6 |
| 20260509150044 | 68 | 94 | 0.9 | 0.0 | 0.00 | 0.00 | 0.05 | 96 | 1013.5 |
| 20260509144541 | 68 | 46 | 0.0 | 0.0 | 0.00 | 0.00 | 0.04 | 95 | 1013.2 |
| 20260509143049 | 67 | 26 | 0.0 | 0.0 | 0.00 | 0.00 | 0.03 | 94 | 1013.2 |
| 20260509141540 | 67 | 74 | 0.9 | 0.0 | 0.00 | 0.00 | 0.01 | 94 | 1012.9 |
| 20260509140046 | 67 | 24 | 1.7 | 0.0 | 0.00 | 0.00 | 0.00 | 92 | 1013.4 |
| 20260509134534 | 71 | 9 | 5.2 | 0.0 | 0.00 | 0.00 | 0.00 | 87 | 1013.7 |
| 20260509133030 | 77 | 158 | 0.9 | 0.0 | 0.00 | 0.00 | 0.00 | 95 | 1012.6 |
| 20260509131531 | 77 | 155 | 0.9 | 0.0 | 0.00 | 0.00 | 0.00 | 95 | 1011.8 |
| 20260509130028 | 77 | 140 | 0.9 | 0.0 | 0.00 | 0.00 | 0.00 | 96 | 1011.5 |
| 20260509124526 | 76 | 163 | 0.0 | 0.0 | 0.00 | 0.00 | 0.00 | 96 | 1011.5 |
| 20260509123024 | 76 | 163 | 0.0 | 0.0 | 0.00 | 0.00 | 0.00 | 96 | 1011.3 |
| 20260509121522 | 75 | 163 | 0.0 | 0.0 | 0.00 | 0.00 | 0.00 | 95 | 1011.2 |